Date String (YYYY-MM-DD hh:mm:ss) UTC,Instrument flags,Ambient pressure (hPa),Sample flow (lpm),Bypass flow (lpm),Sample temperature (°C),Ambient temperature (°C),ASC tube jacket temperature (°C),LED temperature (°C),Box temperature (°C),Sample RH (%),Span deviation,Mass concentration (μg/m³),Mass concentration (μg/m³),Mass concentration (μg/m³)
DateTimeUTC,F1_M11,P_M11,Q1_M11,Q2_M11,T1_M11,T2_M11,T3_M11,T4_M11,T5_M11,U1_M11,ZSPAN_M11,X0_M11,X2_M11,X1_M11
2021-10-21 06:00:00,,0830.9,5.00,0.00,26.8,25.9,00.0,35.9,28.6,13.1,0000.0,0013.39,0004.52,0003.49
2021-10-21 06:01:00,,0830.9,5.01,0.00,26.8,25.9,00.0,35.9,28.6,13.1,0000.0,0013.10,0004.47,0003.48
2021-10-21 06:02:00,,0831.0,5.00,0.00,26.8,25.9,00.0,35.9,28.6,13.1,0000.0,0012.69,0004.46,0003.49
2021-10-21 06:03:00,,0831.0,4.99,0.00,26.8,25.9,00.0,35.9,28.6,13.2,0000.0,0012.62,0004.41,0003.48
2021-10-21 06:04:00,,0830.9,5.01,0.00,26.8,25.9,00.0,35.9,28.6,13.2,0000.0,0013.35,0004.43,0003.51
2021-10-21 06:05:00,,0830.9,4.99,0.00,26.8,25.9,00.0,35.9,28.6,13.2,0000.0,0014.79,0004.51,0003.54
2021-10-21 06:06:00,,0831.0,5.01,0.00,26.8,25.9,00.0,35.9,28.6,13.2,0000.0,0014.85,0004.52,0003.57
2021-10-21 06:07:00,,0831.0,5.01,0.00,26.8,25.9,00.0,35.9,28.5,13.3,0000.0,0015.33,0004.61,0003.60
2021-10-21 06:08:00,,0831.0,4.99,0.00,26.8,25.9,00.0,35.9,28.5,13.3,0000.0,0015.16,0004.68,0003.63
2021-10-21 06:09:00,,0831.0,5.01,0.00,26.8,25.9,00.0,35.9,28.5,13.2,0000.0,0016.48,0004.72,0003.66
2021-10-21 06:10:00,,0831.0,5.00,0.00,26.7,25.9,00.0,35.9,28.5,13.2,0000.0,0018.16,0004.75,0003.69
2021-10-21 06:11:00,,0830.9,4.98,0.00,26.7,25.9,00.0,35.9,28.5,13.2,0000.0,0018.25,0004.77,0003.71
2021-10-21 06:12:00,,0830.9,5.00,0.00,26.7,25.9,00.0,35.9,28.5,13.2,0000.0,0018.18,0004.81,0003.75
2021-10-21 06:13:00,,0831.0,5.00,0.00,26.7,25.9,00.0,35.9,28.5,13.3,0000.0,0018.39,0004.85,0003.77
2021-10-21 06:14:00,,0831.1,4.99,0.00,26.7,25.9,00.0,35.9,28.5,13.3,0000.0,0018.30,0004.89,0003.80
2021-10-21 06:15:00,,0831.0,5.00,0.00,26.7,25.8,00.0,35.9,28.5,13.3,0000.0,0017.70,0004.89,0003.80
2021-10-21 06:16:00,,0831.0,5.00,0.00,26.7,25.8,00.0,35.8,28.5,13.2,0000.0,0017.51,0004.86,0003.78
2021-10-21 06:17:00,,0831.0,5.01,0.00,26.7,25.8,00.0,35.8,28.5,13.2,0000.0,0018.27,0004.83,0003.77
2021-10-21 06:18:00,,0831.0,5.01,0.00,26.7,25.8,00.0,35.8,28.4,13.3,0000.0,0018.39,0004.77,0003.77
2021-10-21 06:19:00,,0831.0,4.99,0.00,26.7,25.8,00.0,35.8,28.4,13.3,0000.0,0018.27,0004.73,0003.76
2021-10-21 06:20:00,,0831.1,5.00,0.00,26.7,25.8,00.0,35.8,28.5,13.3,0000.0,0016.99,0004.69,0003.75
2021-10-21 06:21:00,,0831.0,5.01,0.00,26.7,25.8,00.0,35.8,28.5,13.3,0000.0,0015.12,0004.68,0003.75
2021-10-21 06:22:00,,0831.0,4.99,0.00,26.7,25.8,00.0,35.8,28.4,13.3,0000.0,0015.85,0004.70,0003.75
2021-10-21 06:23:00,,0831.1,5.01,0.00,26.7,25.8,00.0,35.8,28.4,13.3,0000.0,0015.54,0004.65,0003.73
2021-10-21 06:24:00,,0831.0,5.01,0.00,26.6,25.8,00.0,35.8,28.4,13.3,0000.0,0015.26,0004.60,0003.72
2021-10-21 06:25:00,,0831.0,4.99,0.00,26.6,25.7,00.0,35.8,28.4,13.3,0000.0,0015.17,0004.58,0003.71
2021-10-21 06:26:00,,0831.1,5.00,0.00,26.6,25.7,00.0,35.8,28.4,13.3,0000.0,0015.07,0004.57,0003.69
2021-10-21 06:27:00,,0831.2,5.00,0.00,26.6,25.7,00.0,35.8,28.4,13.3,0000.0,0014.57,0004.54,0003.68
2021-10-21 06:28:00,,0831.2,4.99,0.00,26.6,25.7,00.0,35.8,28.4,13.3,0000.0,0013.61,0004.53,0003.66
2021-10-21 06:29:00,,0831.2,5.00,0.00,26.6,25.7,00.0,35.8,28.4,13.3,0000.0,0013.79,0004.51,0003.64
2021-10-21 06:30:00,,0831.2,5.02,0.00,26.6,25.7,00.0,35.7,28.3,13.3,0000.0,0013.87,0004.50,0003.63
2021-10-21 06:31:00,,0831.2,5.00,0.00,26.6,25.7,00.0,35.7,28.4,13.3,0000.0,0014.22,0004.55,0003.62
2021-10-21 06:32:00,,0831.1,4.99,0.00,26.6,25.7,00.0,35.7,28.3,13.3,0000.0,0014.76,0004.53,0003.60
2021-10-21 06:33:00,,0831.1,5.00,0.00,26.6,25.6,00.0,35.7,28.3,13.3,0000.0,0013.14,0004.50,0003.57
2021-10-21 06:34:00,,0831.1,5.00,0.00,26.6,25.6,00.0,35.7,28.3,13.4,0000.0,0012.88,0004.48,0003.56
2021-10-21 06:35:00,,0831.1,5.00,0.00,26.6,25.6,00.0,35.7,28.3,13.4,0000.0,0012.98,0004.53,0003.57
2021-10-21 06:36:00,,0831.2,5.00,0.00,26.6,25.6,00.0,35.7,28.3,13.4,0000.0,0012.57,0004.52,0003.58
2021-10-21 06:37:00,,0831.2,5.00,0.00,26.6,25.6,00.0,35.7,28.3,13.4,0000.0,0012.60,0004.51,0003.57
2021-10-21 06:38:00,,0831.2,5.00,0.00,26.6,25.6,00.0,35.7,28.3,13.4,0000.0,0012.93,0004.49,0003.56
2021-10-21 06:39:00,,0831.2,5.01,0.00,26.6,25.6,00.0,35.7,28.3,13.4,0000.0,0012.65,0004.49,0003.56
2021-10-21 06:40:00,,0831.2,5.01,0.00,26.6,25.6,00.0,35.7,28.3,13.4,0000.0,0011.83,0004.49,0003.56
2021-10-21 06:41:00,,0831.2,5.00,0.00,26.6,25.6,00.0,35.7,28.3,13.4,0000.0,0011.52,0004.50,0003.57
2021-10-21 06:42:00,,0831.2,4.99,0.00,26.6,25.6,00.0,35.7,28.3,13.4,0000.0,0011.56,0004.46,0003.58
2021-10-21 06:43:00,,0831.1,5.00,0.00,26.5,25.6,00.0,35.7,28.3,13.4,0000.0,0011.27,0004.47,0003.60
2021-10-21 06:44:00,,0831.2,5.00,0.00,26.5,25.6,00.0,35.7,28.3,13.4,0000.0,0011.87,0004.51,0003.61
2021-10-21 06:45:00,,0831.2,5.00,0.00,26.5,25.6,00.0,35.7,28.3,13.5,0000.0,0012.58,0004.56,0003.63
2021-10-21 06:46:00,,0831.2,5.00,0.00,26.5,25.6,00.0,35.7,28.3,13.5,0000.0,0012.65,0004.54,0003.62
2021-10-21 06:47:00,,0831.2,4.99,0.00,26.5,25.6,00.0,35.7,28.2,13.5,0000.0,0013.11,0004.62,0003.62
2021-10-21 06:48:00,,0831.2,5.01,0.00,26.5,25.6,00.0,35.6,28.2,13.5,0000.0,0012.81,0004.65,0003.63
2021-10-21 06:49:00,,0831.2,5.00,0.00,26.5,25.6,00.0,35.6,28.3,13.5,0000.0,0012.50,0004.64,0003.65
2021-10-21 06:50:00,,0831.2,4.99,0.00,26.5,25.6,00.0,35.6,28.3,13.5,0000.0,0012.63,0004.62,0003.64
2021-10-21 06:51:00,,0831.2,5.00,0.00,26.5,25.6,00.0,35.6,28.2,13.5,0000.0,0013.44,0004.64,0003.65
2021-10-21 06:52:00,,0831.2,5.00,0.00,26.5,25.6,00.0,35.6,28.2,13.5,0000.0,0014.69,0004.63,0003.65
2021-10-21 06:53:00,,0831.2,5.00,0.00,26.5,25.6,00.0,35.6,28.3,13.5,0000.0,0014.35,0004.62,0003.64
2021-10-21 06:54:00,,0831.2,5.00,0.00,26.5,25.6,00.0,35.6,28.2,13.6,0000.0,0014.17,0004.62,0003.63
2021-10-21 06:55:00,,0831.1,4.99,0.00,26.5,25.6,00.0,35.6,28.2,13.6,0000.0,0015.49,0004.61,0003.61
2021-10-21 06:56:00,,0831.0,5.01,0.00,26.5,25.5,00.0,35.6,28.2,13.6,0000.0,0015.97,0004.57,0003.59
2021-10-21 06:57:00,,0831.0,5.00,0.00,26.5,25.5,00.0,35.6,28.2,13.5,0000.0,0016.91,0004.55,0003.58
2021-10-21 06:58:00,,0831.1,5.00,0.00,26.4,25.5,00.0,35.6,28.2,13.5,0000.0,0017.09,0004.46,0003.57
2021-10-21 06:59:00,,0831.2,4.99,0.00,26.4,25.5,00.0,35.6,28.2,13.6,0000.0,0017.13,0004.43,0003.56
